IQ1LY-3 Weather Reports


Display with metric or nautical units.
time (UTC)temp
F
wind
direction
speed
MPH
gust
MPH
rain 1hr
in
rain 24hr
in
rain mn
in
humidity
%
barometer
mb
20260505223342 57 270 0.0 0.0 0.00 0.00 0.00 89 1010.5
20260505222342 57 270 0.0 0.0 0.00 0.00 0.00 89 1010.8
20260505221239 57 270 0.0 0.0 0.00 0.00 0.00 89 1011.2
20260505220238 57 270 0.0 0.0 0.00 0.00 0.00 89 1011.2
20260505215238 57 270 0.0 0.0 0.00 0.00 0.00 89 1011.5
20260505214237 56 248 0.0 0.0 0.00 0.00 0.00 89 1011.5
20260505213237 56 248 0.0 0.0 0.00 0.00 0.00 89 1011.5
20260505212236 56 270 0.0 0.0 0.00 0.00 0.00 89 1011.5
20260505211235 56 338 0.0 0.0 0.00 0.00 0.00 89 1011.5
20260505210235 56 338 0.0 0.0 0.00 0.00 0.00 89 1011.5
20260505205234 55 338 0.0 0.0 0.00 0.00 0.00 89 1011.9
20260505204233 55 338 0.0 0.0 0.00 0.00 0.00 89 1011.9
20260505203232 55 248 0.0 0.0 0.00 0.00 0.00 88 1011.9
20260505202231 55 270 0.0 0.0 0.00 0.00 0.00 88 1011.9
20260505201159 55 270 0.0 0.0 0.00 0.00 0.00 88 1011.9
20260505200159 55 270 0.0 0.0 0.00 0.00 0.00 88 1011.9
20260505195158 55 270 0.0 0.0 0.00 0.00 0.00 88 1011.9
20260505194157 55 270 0.0 0.0 0.00 0.00 0.00 87 1011.5
20260505193157 55 270 0.0 0.0 0.00 0.00 0.00 87 1011.5
20260505192155 55 270 0.0 0.0 0.00 0.00 0.00 86 1011.5
20260505191154 56 270 0.0 0.0 0.00 0.00 0.00 86 1011.5
20260505190122 56 270 0.0 0.0 0.00 0.00 0.00 85 1011.2
20260505185122 57 270 0.0 0.0 0.00 0.00 0.00 85 1011.2
20260505184121 57 270 0.0 0.0 0.00 0.00 0.00 84 1011.2
20260505183120 58 270 0.0 0.0 0.00 0.00 0.00 84 1011.2
20260505182119 58 293 0.0 0.0 0.00 0.00 0.00 83 1011.2
20260505181046 59 293 0.0 0.0 0.00 0.00 0.00 82 1011.2
20260505180046 60 293 0.0 0.0 0.00 0.00 0.00 81 1011.5
20260505175045 60 293 0.0 0.0 0.00 0.00 0.00 80 1011.5
20260505174044 61 315 0.0 0.0 0.00 0.00 0.00 78 1011.5
20260505173012 62 180 0.0 0.0 0.00 0.00 0.00 78 1011.5
20260505172011 62 180 0.0 0.0 0.00 0.00 0.00 77 1011.2
20260505171010 63 203 0.0 0.0 0.00 0.00 0.00 76 1011.5
20260505170009 63 203 0.0 0.0 0.00 0.00 0.00 75 1011.5
20260505165008 63 203 0.0 0.0 0.00 0.00 0.00 74 1011.5
20260505164007 63 225 0.0 0.0 0.00 0.00 0.00 73 1011.5
20260505163007 64 113 0.0 0.0 0.00 0.00 0.00 72 1011.5
20260505162005 64 113 0.0 0.0 0.00 0.00 0.00 72 1011.5
20260505161004 64 68 0.0 0.0 0.00 0.00 0.00 71 1011.5
20260505152959 64 158 0.0 0.0 0.00 0.00 0.00 74 1011.5
20260505151958 64 203 0.0 0.0 0.00 0.00 0.00 75 1011.5
20260505150957 64 135 0.0 0.0 0.00 0.00 0.00 75 1011.9
20260505124812 63 135 0.0 0.0 0.00 0.00 0.00 77 1012.2
20260505123812 63 248 0.0 0.0 0.00 0.00 0.00 77 1012.2
20260505122740 63 180 0.0 0.0 0.00 0.00 0.00 77 1012.2
20260505121739 63 180 0.0 0.0 0.00 0.00 0.00 77 1012.2
20260505120738 63 90 0.0 0.0 0.00 0.00 0.00 77 1012.2
20260505115737 63 113 0.0 0.0 0.00 0.00 0.00 78 1012.2
20260505114736 62 113 0.0 0.0 0.00 0.00 0.00 78 1012.2
20260505113705 62 113 0.0 0.0 0.00 0.00 0.00 78 1012.2
20260505112703 62 180 0.0 0.0 0.00 0.00 0.00 80 1012.2
20260505111702 62 158 0.0 0.0 0.00 0.00 0.00 81 1012.2
20260505110701 62 113 0.0 0.0 0.00 0.00 0.00 82 1012.2
20260505101658 62 225 0.0 0.0 0.00 0.00 0.00 81 1012.2
20260505100626 62 135 0.0 0.0 0.00 0.00 0.00 81 1012.2
20260505095625 62 113 0.0 0.0 0.00 0.00 0.00 81 1012.2
20260505094624 62 158 0.0 0.0 0.00 0.00 0.00 81 1011.9
20260505093623 62 180 0.0 0.0 0.00 0.00 0.00 82 1011.9
20260505092622 62 158 0.0 2.0 0.00 0.00 0.00 83 1011.9
20260505091550 62 158 2.0 2.0 0.00 0.00 0.00 83 1011.9
20260505090549 61 203 0.0 0.0 0.00 0.00 0.00 83 1011.9
20260505085548 61 158 0.0 0.0 0.00 0.00 0.00 83 1011.9
20260505084547 61 180 0.0 0.0 0.00 0.00 0.00 83 1011.5
20260505083546 61 135 0.0 0.0 0.00 0.00 0.00 83 1011.5
20260505082544 61 270 0.0 0.0 0.00 0.00 0.00 85 1011.5
20260505081543 61 225 0.0 0.0 0.00 0.00 0.00 84 1011.5
20260505080543 61 293 0.0 0.0 0.00 0.00 0.00 84 1011.5
20260505075542 61 225 0.0 0.0 0.00 0.00 0.00 83 1012.2
20260505074510 61 158 0.0 0.0 0.00 0.00 0.00 83 1011.2
20260505073509 61 90 0.0 1.0 0.00 0.00 0.00 83 1011.2
20260505072508 61 90 1.0 3.0 0.00 0.00 0.00 84 1011.2
20260505071508 61 113 0.0 0.0 0.00 0.00 0.00 85 1010.8
20260505070507 61 135 0.0 0.0 0.00 0.00 0.00 87 1010.8
20260505065506 61 203 0.0 0.0 0.00 0.00 0.00 88 1010.8
20260505064434 60 135 0.0 2.0 0.00 0.00 0.00 88 1010.8
20260505063433 60 99 2.0 2.0 0.00 0.00 0.00 89 1010.8
20260505062432 59 135 0.0 0.0 0.00 0.00 0.00 90 1010.8
20260505061431 58 68 0.0 1.0 0.00 0.00 0.00 91 1010.5
20260505060430 57 68 1.0 1.0 0.00 0.00 0.00 91 1010.5
20260505055358 56 90 0.0 0.0 0.00 0.00 0.00 91 1010.5
20260505054357 56 45 0.0 0.0 0.00 0.00 0.00 91 1010.5
20260505053357 56 180 0.0 3.0 0.00 0.00 0.00 91 1010.2
20260505052356 56 158 0.0 0.0 0.00 0.00 0.00 91 1010.2
20260505051355 56 68 0.0 0.0 0.00 0.00 0.00 91 1009.8
20260505050354 56 203 0.0 0.0 0.00 0.00 0.00 91 1009.8
20260505041349 56 270 0.0 0.0 0.00 0.00 0.00 91 1010.5
20260505040348 56 113 0.0 1.0 0.00 0.00 0.00 91 1010.5
20260505035316 56 45 1.0 2.0 0.00 0.00 0.00 90 1010.5
20260505034315 55 90 0.0 8.0 0.00 0.00 0.00 91 1011.2
20260505033314 56 293 0.0 0.0 0.00 0.00 0.00 91 1011.5
20260505032242 56 293 0.0 0.0 0.00 0.00 0.00 91 1011.2
20260505031241 56 158 0.0 0.0 0.00 0.00 0.00 91 1011.9
20260505030240 56 248 0.0 0.0 0.00 0.00 0.00 91 1012.2
20260505025239 56 248 0.0 0.0 0.00 0.00 0.00 91 1011.9
20260505024238 56 180 0.0 0.0 0.00 0.00 0.00 91 1011.9
20260505023237 57 270 0.0 0.0 0.00 0.00 0.00 91 1011.5
20260505022236 57 248 0.0 2.0 0.00 0.00 0.00 91 1011.5
20260505021205 58 158 0.0 0.0 0.00 0.00 0.00 91 1011.9
20260505020133 58 68 0.0 1.0 0.00 0.00 0.00 91 1011.9
20260505015132 58 248 0.0 0.0 0.00 0.00 0.00 91 1012.2
20260505014029 59 338 2.0 2.0 0.00 0.00 0.00 91 1011.9
20260505013028 60 315 3.0 4.0 0.00 0.00 0.00 90 1012.2
20260505012027 58 135 3.0 3.0 0.00 0.00 0.00 91 1012.2
20260505010955 58 158 0.0 4.0 0.00 0.00 0.00 90 1012.5
20260505005955 58 270 0.0 0.0 0.00 0.00 0.00 90 1012.5
20260505004923 59 90 0.0 0.0 0.00 0.00 0.00 90 1012.9
20260505003922 58 90 0.0 0.0 0.00 0.00 0.00 90 1013.2
20260505002922 58 225 0.0 0.0 0.00 0.00 0.00 89 1013.2
20260505001921 57 270 0.0 0.0 0.00 0.00 0.00 89 1013.2
20260505000920 58 270 0.0 0.0 0.00 0.00 0.00 89 1013.5
20260504235920 58 270 0.0 0.0 0.00 0.00 0.00 89 1013.9
20260504234919 58 270 0.0 0.0 0.00 0.00 0.00 88 1013.9
20260504233918 58 225 0.0 2.0 0.00 0.00 0.00 88 1013.9
20260504232917 58 225 0.0 0.0 0.00 0.00 0.00 87 1013.9
20260504231916 58 225 0.0 0.0 0.00 0.00 0.00 87 1014.2
20260504230915 59 248 0.0 0.0 0.00 0.00 0.00 87 1014.2
20260504225914 59 68 0.0 0.0 0.00 0.00 0.00 87 1014.6
20260504224914 60 180 0.0 2.0 0.00 0.00 0.00 86 1014.2